TimeEDT,TemperatureF,Dew PointF,Humidity,Sea Level PressureIn,VisibilityMPH,Wind Direction,Wind SpeedMPH,Gust SpeedMPH,PrecipitationIn,Events,Conditions,WindDirDegrees,DateUTC
12:15 AM,62.6,62.6,100,29.96,10.0,Calm,Calm,-,N/A,,Clear,0,2013-09-08 04:15:00
12:35 AM,60.8,59.0,94,29.96,9.0,Calm,Calm,-,N/A,,Clear,0,2013-09-08 04:35:00
12:55 AM,60.8,60.8,100,29.96,10.0,SSE,4.6,-,N/A,,Clear,160,2013-09-08 04:55:00
1:15 AM,60.8,59.0,94,29.96,10.0,South,3.5,-,N/A,,Clear,170,2013-09-08 05:15:00
1:35 AM,60.8,60.8,100,29.95,9.0,SSE,3.5,-,N/A,,Clear,150,2013-09-08 05:35:00
1:55 AM,60.8,60.8,100,29.95,8.0,Calm,Calm,-,N/A,,Clear,0,2013-09-08 05:55:00
2:15 AM,60.8,60.8,100,29.95,10.0,Calm,Calm,-,N/A,,Clear,0,2013-09-08 06:15:00
2:35 AM,60.8,60.8,100,29.94,8.0,Calm,Calm,-,N/A,,Clear,0,2013-09-08 06:35:00
2:55 AM,60.8,60.8,100,29.94,10.0,Calm,Calm,-,N/A,,Clear,0,2013-09-08 06:55:00
3:15 AM,62.6,60.8,94,29.94,10.0,Calm,Calm,-,N/A,,Clear,0,2013-09-08 07:15:00
3:35 AM,62.6,60.8,94,29.93,10.0,Calm,Calm,-,N/A,,Clear,0,2013-09-08 07:35:00
3:55 AM,62.6,62.6,100,29.94,10.0,Calm,Calm,-,N/A,,Partly Cloudy,0,2013-09-08 07:55:00
4:15 AM,62.6,62.6,100,29.94,10.0,Calm,Calm,-,N/A,,Partly Cloudy,0,2013-09-08 08:15:00
4:35 AM,62.6,62.6,100,29.93,10.0,SSE,3.5,-,N/A,,Clear,150,2013-09-08 08:35:00
4:55 AM,62.6,62.6,100,29.94,10.0,Calm,Calm,-,N/A,,Mostly Cloudy,0,2013-09-08 08:55:00
5:15 AM,62.6,62.6,100,29.93,10.0,Calm,Calm,-,N/A,,Mostly Cloudy,0,2013-09-08 09:15:00
5:35 AM,62.6,62.6,100,29.94,10.0,Calm,Calm,-,N/A,,Mostly Cloudy,0,2013-09-08 09:35:00
5:55 AM,62.6,62.6,100,29.93,10.0,SSE,3.5,-,N/A,,Overcast,150,2013-09-08 09:55:00
6:15 AM,62.6,62.6,100,29.94,10.0,Calm,Calm,-,N/A,,Overcast,0,2013-09-08 10:15:00
6:35 AM,62.6,62.6,100,29.94,10.0,Calm,Calm,-,N/A,,Mostly Cloudy,0,2013-09-08 10:35:00
6:55 AM,62.6,62.6,100,29.94,10.0,Calm,Calm,-,N/A,,Mostly Cloudy,0,2013-09-08 10:55:00
7:15 AM,64.4,64.4,100,29.94,10.0,Calm,Calm,-,N/A,,Overcast,0,2013-09-08 11:15:00
7:45 AM,64.4,64.4,100,29.94,10.0,Variable,3.5,-,N/A,,Overcast,0,2013-09-08 11:45:00
8:45 AM,66.2,64.4,94,29.93,10.0,Calm,Calm,-,N/A,,Mostly Cloudy,0,2013-09-08 12:45:00
9:45 AM,73.4,62.6,69,29.94,10.0,Calm,Calm,-,N/A,,Clear,0,2013-09-08 13:45:00
11:45 AM,84.2,62.6,48,29.93,10.0,West,5.8,-,N/A,,Clear,280,2013-09-08 15:45:00
1:45 PM,87.8,62.6,43,29.90,10.0,NW,9.2,-,N/A,,Scattered Clouds,320,2013-09-08 17:45:00
2:45 PM,89.6,62.6,40,29.89,10.0,NNW,8.1,-,N/A,,Mostly Cloudy,330,2013-09-08 18:45:00
4:55 PM,87.8,62.6,43,29.89,10.0,NE,9.2,-,N/A,,Mostly Cloudy,40,2013-09-08 20:55:00
6:15 PM,84.2,62.6,48,29.90,10.0,NNE,9.2,-,N/A,,Scattered Clouds,20,2013-09-08 22:15:00
6:35 PM,84.2,64.4,51,29.91,10.0,NNW,9.2,-,N/A,,Mostly Cloudy,340,2013-09-08 22:35:00
6:55 PM,84.2,64.4,51,29.91,10.0,North,9.2,-,N/A,,Overcast,360,2013-09-08 22:55:00
7:15 PM,84.2,64.4,51,29.92,10.0,North,11.5,-,N/A,,Overcast,10,2013-09-08 23:15:00
7:35 PM,82.4,64.4,54,29.93,10.0,North,11.5,-,N/A,,Overcast,360,2013-09-08 23:35:00
7:55 PM,82.4,64.4,54,29.94,10.0,North,8.1,-,N/A,,Overcast,10,2013-09-08 23:55:00
8:15 PM,82.4,64.4,54,29.96,10.0,NNE,8.1,-,N/A,,Overcast,20,2013-09-09 00:15:00
8:35 PM,80.6,66.2,61,29.97,10.0,NE,4.6,-,N/A,,Overcast,40,2013-09-09 00:35:00
8:55 PM,78.8,66.2,65,29.98,10.0,NNE,5.8,-,N/A,,Scattered Clouds,30,2013-09-09 00:55:00
9:15 PM,78.8,66.2,65,29.99,10.0,NNE,4.6,-,N/A,,Partly Cloudy,30,2013-09-09 01:15:00
9:35 PM,77.0,66.2,69,29.99,10.0,NE,3.5,-,N/A,,Partly Cloudy,40,2013-09-09 01:35:00
9:55 PM,77.0,66.2,69,30.00,10.0,NNE,4.6,-,N/A,,Clear,20,2013-09-09 01:55:00
10:15 PM,75.2,66.2,73,30.01,10.0,NNE,4.6,-,N/A,,Clear,30,2013-09-09 02:15:00
10:35 PM,75.2,66.2,73,30.02,10.0,NNE,3.5,-,N/A,,Clear,20,2013-09-09 02:35:00
10:55 PM,73.4,66.2,78,30.02,10.0,NNE,3.5,-,N/A,,Clear,30,2013-09-09 02:55:00
11:15 PM,75.2,66.2,73,30.03,10.0,NNE,6.9,-,N/A,,Partly Cloudy,30,2013-09-09 03:15:00
11:35 PM,73.4,66.2,78,30.04,10.0,NNE,8.1,-,N/A,,Scattered Clouds,20,2013-09-09 03:35:00
11:55 PM,73.4,64.4,73,30.05,10.0,NNE,8.1,-,N/A,,Mostly Cloudy,30,2013-09-09 03:55:00